Weather History for Cairo, IL

Change the Weather History Date:

Tuesday, March 25, 2014

  Actual Average Record
Temperature  
Mean Temperature 39 °F -  
Max Temperature 47 °F 55 °F 84 °F (2007)
Min Temperature 32 °F 39 °F 19 °F (1955)
Degree Days  
Heating Degree Days 26    
Moisture  
Dew Point 22 °F    
Average Humidity 55    
Maximum Humidity 86    
Minimum Humidity 27    
Precipitation  
Precipitation 0.00 in - - ()
Sea Level Pressure  
Sea Level Pressure 30.22 in    
Wind  
Wind Speed 9 mph (NW)    
Max Wind Speed 22 mph    
Max Gust Speed 33 mph    
Visibility 9 miles    
Events Rain , Snow    
Averages and records for this station are not official NWS values.
T = Trace of Precipitation, MM = Missing Value Source: NWS Daily Summary

Daily Weather History Graph

Daily Weather History Graph

Search for Another Location

Airport:

Trip Planner

Search our weather history database for the weather conditions in past years. The results will help you decide how hot, cold, wet, or windy it might be!

Date:

Astronomy

Mar. 25, 2014 Rise Set
Actual Time 6:52 AM CDT 7:13 PM CDT
Civil Twilight 6:26 AM CDT 7:39 PM CDT
Nautical Twilight 5:56 AM CDT 8:09 PM CDT
Astronomical Twilight 5:25 AM CDT 8:40 PM CDT
Moon 3:07 AM CDT (3/25) 1:50 PM CDT (3/25)
Length of Visible Light 13h 12m
Length of Day
12h 20m
Waning Crescent, 32% of the Moon is Illuminated
Mar 25
Waning Crescent
Mar 30
New
Apr 7
First Quarter
Apr 15
Full
Apr 22
Last Quarter

Hourly Weather History & Observations

Time (CDT) Temp. Windchill Dew Point Humidity Pressure Visibility Wind Dir Wind Speed Gust Speed Precip Events Conditions
12:15 AM 36.1 °F 31.4 °F 30.2 °F 79% 30.17 in 10.0 mi North 5.8 mph - N/A   Overcast
12:35 AM 36.0 °F 29.6 °F 30.6 °F 81% 30.16 in 10.0 mi North 8.1 mph - N/A   Overcast
12:55 AM 35.6 °F 30.7 °F 30.6 °F 82% 30.16 in 10.0 mi North 5.8 mph - N/A   Overcast
1:15 AM 35.6 °F 31.7 °F 30.7 °F 82% 30.15 in 10.0 mi North 4.6 mph - N/A   Overcast
1:35 AM 35.6 °F 32.8 °F 30.7 °F 82% 30.15 in 10.0 mi North 3.5 mph - N/A   Overcast
1:55 AM 35.6 °F - 31.1 °F 84% 30.15 in 10.0 mi Calm Calm - N/A   Overcast
2:15 AM 35.6 °F 31.7 °F 31.1 °F 84% 30.15 in 10.0 mi NNW 4.6 mph - N/A   Overcast
2:35 AM 35.6 °F 31.7 °F 31.1 °F 84% 30.14 in 7.0 mi NNW 4.6 mph - N/A   Overcast
2:55 AM 35.6 °F 32.8 °F 31.1 °F 84% 30.14 in 7.0 mi NNW 3.5 mph - N/A   Overcast
3:15 AM 35.6 °F 31.7 °F 31.5 °F 85% 30.13 in 7.0 mi NW 4.6 mph - N/A Rain Light Rain
3:35 AM 35.6 °F 32.8 °F 31.6 °F 85% 30.13 in 7.0 mi NW 3.5 mph - N/A Snow Light Snow
3:55 AM 35.6 °F 32.8 °F 31.6 °F 85% 30.13 in 5.0 mi WNW 3.5 mph - N/A Snow Light Snow
4:15 AM 35.6 °F 32.8 °F 31.6 °F 85% 30.13 in 5.0 mi WNW 3.5 mph - N/A Snow Light Snow
4:35 AM 35.6 °F 31.7 °F 31.8 °F 86% 30.12 in 4.0 mi NW 4.6 mph - N/A Snow Light Snow
4:55 AM 35.6 °F 30.7 °F 31.6 °F 85% 30.12 in 5.0 mi WNW 5.8 mph - N/A Snow Light Snow
5:15 AM 36.0 °F 29.6 °F 32.0 °F 86% 30.13 in 5.0 mi West 8.1 mph - N/A   Overcast
5:35 AM 36.0 °F 29.6 °F 32.0 °F 86% 30.14 in 7.0 mi West 8.1 mph - N/A   Overcast
5:55 AM 36.0 °F 29.6 °F 32.0 °F 86% 30.14 in 4.0 mi West 8.1 mph - N/A Snow Light Snow
6:15 AM 35.6 °F 30.7 °F 31.8 °F 86% 30.15 in 3.0 mi West 5.8 mph - N/A Snow Light Snow
6:35 AM 36.0 °F 29.0 °F 32.0 °F 86% 30.15 in 5.0 mi NW 9.2 mph - N/A   Overcast
6:55 AM 36.5 °F 29.7 °F 32.0 °F 84% 30.16 in 7.0 mi NW 9.2 mph - N/A   Overcast
7:15 AM 36.7 °F 30.5 °F 31.8 °F 83% 30.17 in 7.0 mi WNW 8.1 mph 11.5 mph N/A   Overcast
7:35 AM 36.7 °F 28.9 °F 31.3 °F 81% 30.18 in 10.0 mi NW 11.5 mph 17.3 mph N/A   Overcast
7:55 AM 36.7 °F 28.0 °F 30.2 °F 77% 30.19 in 10.0 mi NW 13.8 mph 21.9 mph N/A   Overcast
8:15 AM 37.6 °F 29.6 °F 29.3 °F 72% 30.20 in 10.0 mi NW 12.7 mph 17.3 mph N/A   Scattered Clouds
8:35 AM 38.3 °F 30.9 °F 29.3 °F 70% 30.21 in 10.0 mi WNW 11.5 mph - N/A   Scattered Clouds
8:55 AM 39.4 °F 30.4 °F 28.8 °F 66% 30.21 in 10.0 mi NW 17.3 mph 24.2 mph N/A   Scattered Clouds
9:15 AM 39.4 °F 31.1 °F 26.2 °F 59% 30.21 in 10.0 mi NW 15.0 mph 20.7 mph N/A   Scattered Clouds
9:35 AM 39.7 °F 31.2 °F 25.0 °F 56% 30.23 in 10.0 mi NW 16.1 mph 23.0 mph N/A   Scattered Clouds
9:55 AM 41.0 °F 32.5 °F 25.3 °F 54% 30.23 in 10.0 mi NW 17.3 mph 26.5 mph N/A   Mostly Cloudy
10:15 AM 41.7 °F 33.4 °F 24.1 °F 50% 30.24 in 10.0 mi NNW 17.3 mph 26.5 mph N/A   Scattered Clouds
10:35 AM 41.7 °F 33.7 °F 23.4 °F 48% 30.25 in 10.0 mi NNW 16.1 mph - N/A   Mostly Cloudy
10:55 AM 41.5 °F 33.5 °F 23.0 °F 48% 30.25 in 10.0 mi NW 16.1 mph 24.2 mph N/A   Mostly Cloudy
11:15 AM 43.2 °F 35.0 °F 22.1 °F 43% 30.25 in 10.0 mi NNW 18.4 mph 25.3 mph N/A   Scattered Clouds
11:35 AM 41.0 °F 33.1 °F 19.4 °F 42% 30.25 in 10.0 mi NW 15.0 mph 33.4 mph N/A   Mostly Cloudy
11:55 AM 41.7 °F 33.4 °F 19.8 °F 41% 30.26 in 10.0 mi NW 17.3 mph 26.5 mph N/A   Mostly Cloudy
12:15 PM 43.2 °F 34.2 °F 19.6 °F 39% 30.26 in 10.0 mi WNW 21.9 mph 29.9 mph N/A   Mostly Cloudy
12:35 PM 42.6 °F 34.0 °F 22.5 °F 45% 30.26 in 10.0 mi NW 19.6 mph 23.0 mph N/A   Mostly Cloudy
12:55 PM 42.6 °F 34.3 °F 19.0 °F 39% 30.26 in 10.0 mi NW 18.4 mph 24.2 mph N/A   Mostly Cloudy
1:15 PM 43.7 °F 35.0 °F 20.1 °F 39% 30.26 in 10.0 mi NW 21.9 mph 27.6 mph N/A   Mostly Cloudy
1:35 PM 41.9 °F 33.4 °F 19.2 °F 40% 30.26 in 10.0 mi NNW 18.4 mph 23.0 mph N/A   Mostly Cloudy
1:55 PM 44.2 °F 37.6 °F 20.7 °F 39% 30.25 in 10.0 mi WNW 13.8 mph 24.2 mph N/A   Mostly Cloudy
2:15 PM 42.6 °F 34.0 °F 16.7 °F 35% 30.25 in 10.0 mi NW 19.6 mph 25.3 mph N/A   Scattered Clouds
2:35 PM 45.0 °F 37.4 °F 18.3 °F 35% 30.25 in 10.0 mi NW 18.4 mph 27.6 mph N/A   Scattered Clouds
2:55 PM 46.0 °F 39.6 °F 18.5 °F 33% 30.25 in 10.0 mi WNW 15.0 mph 27.6 mph N/A   Mostly Cloudy
3:15 PM 45.0 °F 38.2 °F 16.7 °F 32% 30.24 in 10.0 mi WNW 15.0 mph 23.0 mph N/A   Mostly Cloudy
3:35 PM 45.5 °F 39.6 °F 16.9 °F 32% 30.25 in 10.0 mi NW 12.7 mph 20.7 mph N/A   Scattered Clouds
3:55 PM 43.3 °F 37.2 °F 15.8 °F 33% 30.24 in 10.0 mi NW 11.5 mph - N/A   Scattered Clouds
4:15 PM 46.6 °F - 15.8 °F 29% 30.24 in 10.0 mi West 12.7 mph 21.9 mph N/A   Mostly Cloudy
4:35 PM 45.7 °F 39.5 °F 14.5 °F 29% 30.24 in 10.0 mi WNW 13.8 mph 18.4 mph N/A   Scattered Clouds
4:55 PM 45.7 °F 39.5 °F 14.5 °F 29% 30.24 in 10.0 mi West 13.8 mph 19.6 mph N/A   Scattered Clouds
5:15 PM 45.0 °F 39.3 °F 12.7 °F 27% 30.23 in 10.0 mi NW 11.5 mph - N/A   Scattered Clouds
5:35 PM 45.7 °F 39.5 °F 13.1 °F 27% 30.23 in 10.0 mi NW 13.8 mph 19.6 mph N/A   Clear
5:55 PM 45.1 °F 39.5 °F 12.4 °F 27% 30.23 in 10.0 mi NW 11.5 mph 18.4 mph N/A   Clear
6:15 PM 44.6 °F 38.4 °F 12.4 °F 27% 30.23 in 10.0 mi NNW 12.7 mph 17.3 mph N/A   Clear
6:35 PM 43.9 °F 38.3 °F 12.2 °F 28% 30.24 in 10.0 mi NW 10.4 mph 16.1 mph N/A   Clear
6:55 PM 42.4 °F 37.0 °F 12.6 °F 30% 30.24 in 10.0 mi NNW 9.2 mph - N/A   Clear
7:15 PM 40.6 °F 38.6 °F 12.9 °F 32% 30.24 in 10.0 mi North 3.5 mph - N/A   Clear
7:35 PM 39.4 °F 37.2 °F 12.6 °F 33% 30.25 in 10.0 mi North 3.5 mph - N/A   Clear
7:55 PM 37.4 °F 32.1 °F 13.1 °F 37% 30.25 in 10.0 mi North 6.9 mph - N/A   Clear
8:15 PM 38.1 °F 33.7 °F 13.6 °F 37% 30.26 in 10.0 mi North 5.8 mph - N/A   Clear
8:35 PM 37.8 °F - 14.0 °F 38% 30.26 in 10.0 mi Calm Calm - N/A   Clear
8:55 PM 35.8 °F 33.0 °F 12.7 °F 39% 30.27 in 10.0 mi North 3.5 mph - N/A   Clear
9:15 PM 37.0 °F 34.5 °F 14.0 °F 39% 30.28 in 10.0 mi North 3.5 mph - N/A   Clear
9:35 PM 36.5 °F 31.8 °F 13.1 °F 38% 30.28 in 10.0 mi North 5.8 mph - N/A   Clear
9:55 PM 35.8 °F 31.9 °F 13.5 °F 40% 30.28 in 10.0 mi NNE 4.6 mph - N/A   Clear
10:15 PM 35.1 °F 31.0 °F 13.8 °F 42% 30.29 in 10.0 mi NNE 4.6 mph - N/A   Clear
10:35 PM 34.9 °F - 13.6 °F 42% 30.29 in 10.0 mi Calm Calm - N/A   Clear
10:55 PM 32.4 °F - 14.0 °F 47% 30.30 in 10.0 mi Calm Calm - N/A   Clear
11:15 PM 32.2 °F 28.9 °F 14.9 °F 49% 30.30 in 10.0 mi North 3.5 mph - N/A   Clear
11:35 PM 32.0 °F 27.5 °F 14.4 °F 48% 30.31 in 10.0 mi NNE 4.6 mph - N/A   Clear
11:55 PM 32.0 °F - 15.3 °F 50% 30.31 in 10.0 mi Calm Calm - N/A   Clear